When you browse on this site, cookies collect data to enhance your experience and personalize the content and advertising you see.
Visit our Privacy Policy to learn more. By continuing to use the site, you agree to this use of cookies and data.
  • Em Portugal
  • Lista de países
  • Para 7 dias
  • Temperatura da água
  • Mapas de satélite
  • Mapa do tempo
  • Widgets de tempo
  • user-avatar
    Iniciar Sessão

    Previsão horária em Nagano

    Hoje, 16 Novembro, Sexta-feira

    Tempo Temperatura Precipitação Vento Pressão Humidade
    00:00 +4°C° 0 mm 0 m/s 699 mmHg 83%
    01:00 +5°C° 0 mm 1 m/s 698 mmHg 82%
    02:00 +5°C° 0 mm 1 m/s 698 mmHg 81%
    03:00 +4°C° 0 mm 1 m/s 698 mmHg 80%
    04:00 +4°C° 0 mm 1 m/s 698 mmHg 80%
    05:00 +4°C° 0 mm 1 m/s 698 mmHg 79%
    06:00 +4°C° 0 mm 1 m/s 698 mmHg 79%
    07:00 +6°C° 0 mm 1 m/s 698 mmHg 70%
    08:00 +8°C° 0 mm 1 m/s 698 mmHg 62%
    09:00 +11°C° 0 mm 1 m/s 698 mmHg 51%
    10:00 +12°C° 0 mm 1 m/s 698 mmHg 47%
    11:00 +13°C° 0 mm 1 m/s 698 mmHg 42%
    12:00 +14°C° 0 mm 1 m/s 698 mmHg 38%
    13:00 +14°C° 0 mm 1 m/s 698 mmHg 41%
    14:00 +14°C° 0 mm 1 m/s 697 mmHg 43%
    15:00 +13°C° 0 mm 1 m/s 697 mmHg 49%
    16:00 +11°C° 0 mm 1 m/s 696 mmHg 56%
    17:00 +9°C° 0 mm 1 m/s 696 mmHg 63%
    18:00 +8°C° 0 mm 1 m/s 696 mmHg 71%
    19:00 +7°C° 0 mm 1 m/s 696 mmHg 72%
    20:00 +7°C° 0 mm 1 m/s 696 mmHg 73%
    21:00 +7°C° 0 mm 1 m/s 695 mmHg 77%
    22:00 +7°C° 0 mm 1 m/s 695 mmHg 75%
    23:00 +7°C° 0 mm 1 m/s 695 mmHg 73%

    Amanhã, 17 Novembro, Sábado

    Tempo Temperatura Precipitação Vento Pressão Humidade
    00:00 +7°C° 0 mm 1 m/s 694 mmHg 71%
    01:00 +7°C° 0 mm 1 m/s 694 mmHg 71%
    02:00 +6°C° 0 mm 1 m/s 694 mmHg 70%
    03:00 +6°C° 0 mm 1 m/s 694 mmHg 70%
    04:00 +6°C° 0 mm 1 m/s 694 mmHg 70%
    05:00 +6°C° 0 mm 1 m/s 694 mmHg 69%
    06:00 +6°C° 0 mm 1 m/s 694 mmHg 69%
    07:00 +7°C° 0 mm 1 m/s 694 mmHg 64%
    08:00 +9°C° 0 mm 1 m/s 694 mmHg 59%
    09:00 +11°C° 0 mm 1 m/s 695 mmHg 54%
    10:00 +12°C° 0.1 mm 2 m/s 695 mmHg 55%
    11:00 +13°C° 0.1 mm 2 m/s 695 mmHg 56%
    12:00 +14°C° 0.1 mm 2 m/s 695 mmHg 57%
    13:00 +13°C° 0 mm 2 m/s 695 mmHg 60%
    14:00 +13°C° 0 mm 2 m/s 694 mmHg 63%
    15:00 +12°C° 0 mm 2 m/s 694 mmHg 66%
    16:00 +10°C° 0 mm 2 m/s 694 mmHg 72%
    17:00 +9°C° 0 mm 1 m/s 695 mmHg 79%
    18:00 +8°C° 0 mm 1 m/s 695 mmHg 85%
    19:00 +7°C° 0 mm 1 m/s 695 mmHg 86%
    20:00 +7°C° 0 mm 1 m/s 695 mmHg 87%
    21:00 +7°C° 0 mm 1 m/s 695 mmHg 88%
    22:00 +7°C° 0 mm 1 m/s 695 mmHg 88%
    23:00 +6°C° 0 mm 1 m/s 695 mmHg 87%

    Depois de amanhã, 18 Novembro, Domingo

    Tempo Temperatura Precipitação Vento Pressão Humidade
    00:00 +6°C° 0 mm 1 m/s 695 mmHg 87%
    01:00 +5°C° 0 mm 0 m/s 695 mmHg 87%
    02:00 +5°C° 0 mm 0 m/s 695 mmHg 87%
    03:00 +5°C° 0 mm 0 m/s 696 mmHg 87%
    04:00 +5°C° 0 mm 0 m/s 696 mmHg 88%
    05:00 +5°C° 0 mm 0 m/s 696 mmHg 88%
    06:00 +5°C° 0 mm 0 m/s 696 mmHg 89%
    07:00 +6°C° 0 mm 0 m/s 696 mmHg 82%
    08:00 +9°C° 0 mm 1 m/s 696 mmHg 76%
    09:00 +11°C° 0 mm 1 m/s 697 mmHg 70%
    10:00 +12°C° 0 mm 1 m/s 697 mmHg 64%
    11:00 +13°C° 0 mm 1 m/s 696 mmHg 58%
    12:00 +14°C° 0 mm 1 m/s 696 mmHg 53%
    13:00 +14°C° 0 mm 1 m/s 696 mmHg 54%
    14:00 +14°C° 0 mm 1 m/s 696 mmHg 55%
    15:00 +13°C° 0 mm 1 m/s 695 mmHg 56%
    16:00 +12°C° 0 mm 1 m/s 695 mmHg 64%
    17:00 +10°C° 0 mm 1 m/s 695 mmHg 72%
    18:00 +8°C° 0 mm 1 m/s 695 mmHg 80%
    19:00 +8°C° 0 mm 1 m/s 695 mmHg 81%
    20:00 +8°C° 0 mm 1 m/s 695 mmHg 82%
    21:00 +8°C° 0 mm 1 m/s 695 mmHg 83%
    22:00 +8°C° 0 mm 1 m/s 695 mmHg 82%
    23:00 +8°C° 0 mm 1 m/s 695 mmHg 81%

    19 Novembro, Segunda-feira

    Tempo Temperatura Precipitação Vento Pressão Humidade
    00:00 +8°C° 0 mm 1 m/s 694 mmHg 80%
    01:00 +8°C° 0.1 mm 1 m/s 694 mmHg 79%
    02:00 +8°C° 0.1 mm 1 m/s 694 mmHg 78%
    03:00 +8°C° 0.1 mm 1 m/s 694 mmHg 77%
    04:00 +8°C° 0.1 mm 1 m/s 694 mmHg 77%
    05:00 +8°C° 0.1 mm 1 m/s 694 mmHg 77%
    06:00 +7°C° 0.1 mm 1 m/s 694 mmHg 77%
    07:00 +9°C° 0.2 mm 1 m/s 695 mmHg 73%
    08:00 +10°C° 0.2 mm 1 m/s 695 mmHg 69%
    09:00 +10°C° 0.2 mm 2 m/s 695 mmHg 65%
    10:00 +10°C° 0.1 mm 2 m/s 695 mmHg 64%
    11:00 +12°C° 0.1 mm 2 m/s 695 mmHg 63%
    12:00 +12°C° 0.1 mm 2 m/s 694 mmHg 63%
    13:00 +12°C° 0.1 mm 2 m/s 694 mmHg 64%
    14:00 +10°C° 0.1 mm 2 m/s 694 mmHg 65%
    15:00 +10°C° 0.1 mm 2 m/s 694 mmHg 66%
    16:00 +9°C° 0 mm 2 m/s 694 mmHg 71%
    17:00 +8°C° 0 mm 2 m/s 694 mmHg 76%
    18:00 +6°C° 0 mm 2 m/s 694 mmHg 81%
    19:00 +6°C° 0.1 mm 2 m/s 694 mmHg 83%
    20:00 +7°C° 0.1 mm 1 m/s 695 mmHg 84%
    21:00 +6°C° 0.1 mm 1 m/s 695 mmHg 85%
    22:00 +6°C° 0 mm 1 m/s 695 mmHg 85%
    23:00 +6°C° 0 mm 1 m/s 695 mmHg 86%

    20 Novembro, Terça-feira

    Tempo Temperatura Precipitação Vento Pressão Humidade
    00:00 +5°C° 0 mm 1 m/s 695 mmHg 86%
    01:00 +5°C° 0 mm 1 m/s 695 mmHg 85%
    02:00 +5°C° 0 mm 1 m/s 695 mmHg 85%
    03:00 +5°C° 0 mm 1 m/s 695 mmHg 84%
    04:00 +4°C° 0 mm 1 m/s 695 mmHg 83%
    05:00 +4°C° 0 mm 1 m/s 695 mmHg 82%
    06:00 +3°C° 0 mm 1 m/s 696 mmHg 81%
    07:00 +5°C° 0 mm 1 m/s 696 mmHg 73%
    08:00 +7°C° 0 mm 1 m/s 697 mmHg 65%
    09:00 +7°C° 0 mm 0 m/s 697 mmHg 56%
    10:00 +10°C° 0 mm 1 m/s 697 mmHg 51%
    11:00 +11°C° 0 mm 1 m/s 697 mmHg 45%
    12:00 +13°C° 0 mm 1 m/s 697 mmHg 40%
    13:00 +12°C° 0 mm 1 m/s 697 mmHg 42%
    14:00 +12°C° 0 mm 2 m/s 697 mmHg 45%
    15:00 +10°C° 0 mm 2 m/s 697 mmHg 48%
    16:00 +10°C° 0 mm 1 m/s 697 mmHg 56%
    17:00 +8°C° 0 mm 1 m/s 697 mmHg 65%
    18:00 +6°C° 0 mm 1 m/s 697 mmHg 73%
    19:00 +6°C° 0 mm 1 m/s 697 mmHg 74%
    20:00 +6°C° 0 mm 1 m/s 697 mmHg 75%
    21:00 +4°C° 0 mm 0 m/s 697 mmHg 76%
    22:00 +4°C° 0 mm 0 m/s 697 mmHg 76%
    23:00 +4°C° 0 mm 0 m/s 697 mmHg 77%

    21 Novembro, Quarta-feira

    Tempo Temperatura Precipitação Vento Pressão Humidade
    00:00 +4°C° 0 mm 1 m/s 697 mmHg 77%
    01:00 +4°C° 0 mm 1 m/s 697 mmHg 77%
    02:00 +4°C° 0 mm 1 m/s 697 mmHg 77%
    03:00 +4°C° 0 mm 1 m/s 697 mmHg 77%
    04:00 +3°C° 0 mm 1 m/s 696 mmHg 76%
    05:00 +3°C° 0 mm 1 m/s 696 mmHg 76%
    06:00 +3°C° 0 mm 1 m/s 696 mmHg 75%
    07:00 +5°C° 0 mm 1 m/s 697 mmHg 66%
    08:00 +6°C° 0 mm 0 m/s 697 mmHg 58%
    09:00 +9°C° 0 mm 0 m/s 697 mmHg 49%
    10:00 +11°C° 0 mm 1 m/s 697 mmHg 43%
    11:00 +12°C° 0 mm 1 m/s 697 mmHg 37%
    12:00 +14°C° 0 mm 1 m/s 696 mmHg 31%
    13:00 +13°C° 0 mm 1 m/s 696 mmHg 33%
    14:00 +13°C° 0 mm 2 m/s 695 mmHg 35%
    15:00 +12°C° 0 mm 2 m/s 695 mmHg 37%
    16:00 +9°C° 0 mm 2 m/s 695 mmHg 44%
    17:00 +9°C° 0 mm 1 m/s 694 mmHg 50%
    18:00 +7°C° 0 mm 1 m/s 694 mmHg 57%
    19:00 +6°C° 0 mm 1 m/s 694 mmHg 59%
    20:00 +6°C° 0 mm 1 m/s 694 mmHg 62%
    21:00 +6°C° 0 mm 1 m/s 694 mmHg 64%
    22:00 +6°C° 0.3 mm 1 m/s 694 mmHg 67%
    23:00 +5°C° 0.3 mm 1 m/s 694 mmHg 71%
    Mostrar mais